Location: Newark
(46.9000°N, 28.3500°E)
Time: 09:06:34
(UTC+00:00)

Vanguard 3 - All Passes

Search period start: 24 August 2019 00:00
Search period end: 03 September 2019 00:00
Orbit: 508 x 3263 km, 33.3° (Epoch: 23 August)

Date Brightness Start Highest point End Pass type
(mag) Time Alt. Az. Time Alt. Az. Time Alt. Az.
24 Aug - 14:11:02 10° SSW 14:16:31 18° S 14:20:33 10° SE daylight
24 Aug - 16:23:24 10° SW 16:27:41 19° S 16:30:56 10° SE daylight
25 Aug - 12:56:42 10° SSW 13:02:30 16° SSE 13:06:55 10° SE daylight
25 Aug - 15:08:17 10° SW 15:14:11 22° S 15:18:19 10° SE daylight
25 Aug - 17:21:50 10° SW 17:24:55 15° SSW 17:27:29 10° SSE daylight
26 Aug - 11:43:28 10° S 11:48:10 13° SSE 11:52:06 10° SE daylight
26 Aug - 13:53:04 10° SW 14:00:22 22° S 14:05:22 10° ESE daylight
26 Aug - 16:06:24 10° WSW 16:11:38 22° S 16:15:24 10° SE daylight
27 Aug - 12:38:04 10° SSW 12:46:13 21° SSE 12:51:57 10° ESE daylight
27 Aug - 14:50:51 10° SW 14:58:04 26° S 15:02:51 10° SE daylight
27 Aug - 17:05:09 10° WSW 17:08:51 16° SSW 17:11:46 10° SSE daylight
28 Aug - 11:23:45 10° SSW 11:31:44 18° SSE 11:37:46 10° ESE daylight
28 Aug - 13:35:11 10° SW 13:44:09 27° S 13:49:58 10° ESE daylight
28 Aug - 15:49:18 10° WSW 15:55:33 24° SSW 15:59:48 10° SE daylight
29 Aug - 10:11:14 10° S 10:16:59 13° SSE 10:21:52 10° SE daylight
29 Aug - 12:19:39 10° SW 12:29:50 26° SSE 12:36:40 10° ESE daylight
29 Aug - 14:33:22 10° WSW 14:41:53 30° S 14:47:19 10° SE daylight
29 Aug - 16:48:22 10° WSW 16:52:42 17° SSW 16:56:00 10° SSE daylight
30 Aug - 11:04:43 10° SSW 11:15:10 22° SSE 11:22:42 10° ESE daylight
30 Aug - 13:17:18 10° SW 13:27:50 32° S 13:34:27 10° ESE daylight
30 Aug - 15:32:09 10° WSW 15:39:22 26° SSW 15:44:09 10° SE daylight
31 Aug - 09:51:02 10° S 10:00:15 17° SSE 10:07:35 10° ESE daylight
31 Aug - 12:01:21 10° SW 12:13:21 30° SSE 12:21:09 10° ESE daylight
31 Aug - 14:15:50 10° WSW 14:25:37 33° S 14:31:40 10° SE daylight
31 Aug - 16:31:29 10° WSW 16:36:28 18° SSW 16:40:11 10° SSE daylight
01 Sep - 08:40:39 10° SSE 08:45:12 11° SE 08:49:23 10° SE daylight
01 Sep - 10:45:57 10° SSW 10:58:30 27° SSE 11:07:17 10° ESE daylight
01 Sep - 12:59:24 10° SW 13:11:25 36° S 13:18:48 10° ESE daylight
01 Sep - 15:14:52 10° WSW 15:23:06 28° SSW 15:28:25 10° SE daylight
02 Sep - 09:31:39 10° SSW 09:43:23 22° SSE 09:52:28 10° ESE daylight
02 Sep - 11:43:08 10° SW 11:56:44 35° S 12:05:30 10° ESE daylight
02 Sep - 13:58:13 10° WSW 14:09:15 36° S 14:15:58 10° SE daylight
02 Sep - 16:14:29 10° WSW 16:20:10 19° SSW 16:24:19 10° SSE daylight
